Weather WX

World > North America > United States > Ohio

Proctorville, Ohio Regional Weather

Lat: 38.44N, Lon: 82.38W
Wx Zone: OHZ087
Warning FLW WEATHER ALERT - (More Info. Click Here) Warning
Feedback

Proctorville, OH Regional Weather

Expires:201906160300;;137796
ASUS41 KCLE 160212
RWRCLE
OHIO REGIONAL WEATHER ROUNDUP
NATIONAL WEATHER SERVICE WILMINGTON, OH
1000 PM EDT SAT JUN 15 2019

NOTE: "FAIR" INDICATES FEW OR NO CLOUDS BELOW 12,000 FEET WITH NO
SIGNIFICANT WEATHER AND/OR OBSTRUCTIONS TO VISIBILITY.


OHZ036-037-039>041-045>050-054>059-063>069-073>076-082>088-160300-
  CENTRAL AND SOUTHEAST OHIO
  
CITY           SKY/WX    TMP DP  RH WIND       PRES   REMARKS
COLUMBUS       LGT RAIN  68  66  93 SE10      29.83F                  
OSU AIRPORT    LGT RAIN  67  66  97 SE6       29.83F                  
BOLTON FIELD   CLOUDY    67  66  97 SE7       29.84F                  
RICKENBACK AFB CLOUDY    67  66  96 SE7       29.84F                  
NEWARK         CLOUDY    68  66  93 CALM      29.86F                  
MARION         RAIN      66  64  93 S3        29.87S FOG              
LANCASTER      MOCLDY    68  66  93 SE8       29.86F                  
ZANESVILLE     CLOUDY    67  65  93 SE5       29.89F                  
NEW PHILLY     LGT RAIN  70  63  78 SW3       29.91S                  
$$
  

SKY/WX - Weather  TMP - Temperature  DP - Dew Point  RH - Relative Humidity
WIND - Wind Direction/Speed PRES - Barometric Pressure VSB - Visibility
WCI - Wind Chill Index E13G22 Wind - East Wind 13 mph/Gusts of 22 mph